Theta_e
314 313 312 312 312 312 312 312 312 311 311 308 306 306 305 305 305 305 305 305 305 305 306 306 306 307 307 308 308 308 308 309 309 310 314 317 316 313 312 313 313 313 314 313 313 313 313 312 312 310 315 315 310 313 311 312 321 332 337 330 323 324 324 322 318 316 320 322 316 313 314 317 316 313 311 308 312 316 314 315 315 311 310 310 310 310 309 317
313 312 312 313 312 312 312 311 311 311 310 308 307 306 305 305 304 305 305 305 305 305 306 306 306 307 307 307 307 308 309 310 311 309 314 317 314 311 312 313 313 314 314 314 314 313 314 314 311 311 317 316 310 313 314 309 318 334 330 322 327 330 322 319 319 315 316 317 316 315 313 314 315 314 311 311 316 316 314 316 315 316 315 312 312 312 312 317
312 312 312 312 312 310 311 311 311 311 310 308 307 307 305 305 305 304 305 305 305 305 306 306 306 307 307 307 308 308 309 312 311 310 315 318 313 311 312 313 313 313 314 314 315 312 314 314 309 313 320 318 311 315 320 314 314 322 322 321 329 329 319 314 317 317 315 314 318 316 312 314 313 312 311 313 318 316 317 318 315 318 319 318 314 311 315 318
311 312 311 311 311 310 311 310 310 310 311 310 309 308 306 306 305 305 305 305 305 305 306 306 306 307 307 307 308 308 310 311 310 312 317 316 312 312 312 313 312 312 313 313 314 313 313 311 310 317 320 318 318 319 319 314 313 315 319 322 322 319 318 315 315 317 315 313 317 317 313 314 312 310 312 314 317 316 319 319 316 318 321 323 316 311 316 320
311 311 311 311 311 310 310 311 311 310 312 312 311 309 307 306 306 305 306 305 305 306 306 306 306 307 307 307 308 308 311 312 309 312 316 314 311 312 312 312 312 312 313 312 313 313 311 310 313 321 320 319 324 322 315 311 312 314 314 316 316 316 316 314 314 315 313 312 316 317 314 313 311 311 314 315 315 317 319 317 317 317 317 321 316 312 316 319
311 310 310 310 310 310 310 311 311 310 312 313 312 310 307 307 306 306 306 306 306 305 306 306 306 307 307 308 308 308 312 310 309 313 314 313 312 312 312 312 313 313 313 313 312 312 314 314 317 324 323 319 320 318 315 310 311 315 314 312 314 315 313 313 312 312 312 314 317 316 313 312 312 314 313 314 314 316 314 311 313 311 307 311 312 312 317 320
311 310 310 310 310 311 310 311 309 310 313 313 313 311 309 307 306 306 306 307 307 307 307 306 307 307 307 308 308 311 315 311 310 313 313 312 312 312 312 313 314 314 314 313 312 314 318 320 319 322 323 318 315 315 316 313 313 319 317 313 314 312 312 312 311 312 312 315 316 312 311 312 316 315 311 313 315 315 311 304 305 304 302 306 312 313 316 319
310 310 310 310 310 310 310 311 309 311 312 312 313 312 311 308 307 306 306 307 307 308 307 307 307 307 308 308 310 315 314 312 313 314 312 312 312 312 312 314 315 315 314 312 313 315 318 318 317 317 319 316 314 315 315 315 318 320 316 315 315 313 314 313 312 314 313 314 312 312 313 313 315 312 310 315 316 317 312 306 305 304 306 310 316 316 312 315
309 309 309 309 309 309 309 310 310 311 311 311 312 312 311 309 307 306 306 307 307 309 308 309 308 307 309 308 311 314 310 313 316 314 312 312 312 312 312 314 315 315 314 313 311 312 314 316 315 314 316 314 313 316 315 316 317 316 316 318 316 315 316 314 315 318 316 314 312 313 315 313 311 310 313 317 316 317 312 314 315 313 319 318 317 314 309 312
310 309 309 308 308 308 309 310 310 311 311 311 312 313 312 309 307 306 306 306 307 308 309 309 309 309 309 308 311 311 311 316 317 313 312 312 312 312 312 314 315 315 313 312 311 311 313 315 312 310 314 316 314 315 314 315 315 315 318 318 317 318 317 314 315 318 316 315 313 313 315 314 310 311 314 317 315 314 316 322 318 318 326 320 315 312 308 310
311 310 310 309 309 309 308 309 309 310 311 311 312 313 312 309 307 306 305 306 307 309 310 309 309 310 309 310 313 310 313 317 315 313 312 311 312 312 313 314 315 315 313 312 311 311 312 311 307 308 313 314 314 315 313 313 313 314 318 318 319 322 318 315 317 316 315 315 313 313 314 313 311 312 316 317 311 310 318 326 320 320 324 318 316 312 307 308
311 310 311 311 310 309 309 309 309 310 311 311 313 314 311 308 307 306 305 306 307 308 310 310 310 311 309 310 313 313 316 317 314 314 312 311 312 312 313 315 316 316 314 312 311 311 311 309 310 313 315 312 315 316 312 312 313 314 318 317 321 326 319 315 317 315 314 315 314 314 314 316 314 314 316 315 310 311 317 325 323 321 320 316 315 312 309 307
311 310 311 311 310 310 310 310 310 311 311 312 314 312 309 307 307 306 306 306 307 309 310 311 311 311 308 309 312 313 317 317 314 313 312 311 312 313 314 315 315 316 315 313 312 311 311 310 312 314 314 316 317 312 313 316 315 316 317 318 323 325 320 314 313 313 313 314 313 313 316 322 321 317 315 313 312 315 319 322 321 320 318 315 314 312 312 307
311 311 311 311 311 311 310 309 310 311 311 312 312 311 308 307 308 307 306 306 307 309 310 311 311 309 308 310 311 313 315 315 314 313 312 311 312 313 314 315 316 315 314 314 312 311 312 311 312 313 311 315 314 310 321 326 322 319 314 322 325 318 321 320 314 315 313 312 312 313 316 321 323 321 315 311 311 316 319 320 318 318 317 314 313 312 312 308
311 311 311 311 311 310 309 309 309 310 311 312 311 309 308 308 308 307 307 308 308 310 311 311 310 309 311 310 310 313 314 314 315 313 312 312 312 313 313 314 314 314 313 313 312 311 312 312 315 317 312 311 313 316 328 328 327 325 312 322 325 315 325 328 316 316 315 311 311 313 317 318 319 320 314 309 310 313 317 318 315 316 315 312 312 311 311 308
312 312 311 311 311 311 310 309 309 309 310 310 310 309 309 309 309 308 309 309 311 311 311 311 310 310 313 311 311 313 312 314 316 312 312 312 312 314 313 314 313 313 313 312 313 312 312 315 315 313 312 314 321 331 334 324 328 328 315 319 325 318 325 323 315 314 314 312 311 313 318 320 319 317 313 308 310 312 316 318 315 314 313 310 310 309 309 308
313 313 312 312 312 311 311 311 310 308 308 309 309 310 311 311 310 309 311 312 312 311 311 311 308 308 309 309 312 314 312 314 315 313 313 312 312 314 313 313 311 311 313 312 313 314 313 316 313 311 317 321 324 331 329 321 324 326 319 319 324 322 320 319 318 314 310 312 313 313 315 316 317 316 315 312 312 314 319 322 319 313 310 308 308 307 308 308
314 313 313 313 313 312 312 312 310 309 309 308 309 311 312 313 312 312 313 311 310 309 309 310 307 309 310 308 311 314 313 314 314 313 312 312 313 314 314 312 309 311 317 316 314 315 315 318 318 319 323 322 321 324 323 325 327 326 325 324 323 320 317 321 323 315 310 312 315 316 315 314 314 314 313 315 315 316 319 319 316 312 309 308 307 307 307 307
314 313 313 313 313 313 312 312 310 310 309 309 312 313 311 312 313 314 313 310 310 308 309 312 309 312 313 310 312 313 313 314 313 313 312 313 312 313 314 311 313 317 319 319 316 316 319 322 322 321 322 321 321 320 321 326 328 326 333 336 329 322 319 323 325 318 312 313 316 316 315 315 314 313 312 315 317 317 316 314 312 310 309 308 307 307 307 307
314 314 313 313 313 313 312 311 310 310 309 311 313 310 310 314 313 312 313 314 314 309 314 318 312 312 315 314 315 313 313 313 313 314 312 312 312 314 313 311 320 324 320 324 319 314 319 324 324 324 324 322 320 318 319 322 322 324 331 332 327 322 321 323 322 318 312 313 319 317 314 314 313 313 312 312 316 316 316 314 313 311 310 309 308 307 307 307
314 314 314 313 313 313 312 311 310 309 310 313 312 307 311 315 308 308 314 318 313 307 316 319 311 312 314 312 313 312 314 315 313 313 312 311 312 313 314 316 321 321 320 324 319 314 320 325 324 324 321 319 320 319 320 320 322 326 325 322 323 322 322 320 317 316 312 314 321 319 314 314 312 313 312 311 313 314 314 314 314 313 310 309 309 309 308 307
315 314 314 314 313 314 312 311 310 309 310 312 310 309 311 312 309 310 312 316 313 307 313 314 309 314 312 309 312 312 315 320 316 314 313 311 313 313 316 321 320 319 318 318 318 318 322 324 322 320 317 318 319 317 319 320 321 327 325 320 322 322 321 319 316 314 313 313 320 322 316 314 313 313 312 311 311 311 311 312 312 312 312 311 311 310 308 307
316 315 314 314 313 313 312 311 310 310 311 311 310 310 312 311 311 311 310 314 315 311 313 314 314 317 315 310 312 313 316 320 319 317 313 311 314 314 316 321 321 320 318 317 321 322 323 325 321 317 318 320 319 316 318 319 319 324 324 322 323 322 320 319 318 315 313 311 317 321 316 312 313 313 313 312 312 311 311 310 310 309 311 311 311 311 310 309
317 316 315 314 312 312 311 310 310 310 310 311 311 312 314 314 313 312 313 315 314 314 314 312 312 317 319 312 311 316 317 317 319 317 313 312 315 314 315 321 321 321 318 318 321 319 320 320 313 313 317 321 321 318 318 319 320 323 322 321 323 324 321 319 319 319 317 315 314 317 318 319 319 316 315 315 315 314 311 311 311 309 309 309 310 310 309 310
318 316 315 314 313 312 311 311 311 310 310 310 311 312 315 315 312 311 313 313 312 315 312 308 310 315 315 311 312 317 316 316 318 316 311 312 315 314 314 318 319 320 318 317 317 317 320 316 312 315 315 319 323 320 322 322 323 327 324 320 321 322 321 319 319 319 323 325 317 313 320 331 328 320 319 320 322 322 317 315 314 312 310 309 309 309 308 309
319 318 316 315 313 312 311 312 311 310 311 310 309 312 315 314 312 310 313 315 312 313 311 308 311 312 310 312 315 315 314 314 314 312 311 311 313 313 314 315 315 318 319 317 317 318 318 313 316 323 318 318 320 319 322 321 320 325 321 318 317 316 318 319 318 319 326 329 316 312 321 328 324 321 323 326 328 327 322 320 318 314 313 312 311 310 309 309
320 318 317 315 313 312 312 313 311 310 314 312 308 312 315 314 313 309 311 316 312 313 314 311 309 309 311 312 312 310 311 312 311 311 311 311 311 311 315 316 313 316 317 317 317 317 316 314 316 322 321 319 318 320 322 316 321 325 318 318 319 316 320 321 319 319 324 324 316 316 324 323 321 322 324 325 325 323 321 321 319 315 314 315 314 313 311 310
321 319 318 316 314 313 312 312 311 310 313 312 309 311 315 314 311 309 311 313 311 312 314 312 309 309 312 310 310 312 312 312 314 313 310 310 312 312 316 318 315 318 317 316 317 314 315 320 319 317 319 320 320 324 322 315 320 322 313 316 319 319 323 323 322 322 321 321 320 320 320 321 326 327 323 321 321 321 322 324 322 319 317 317 318 319 315 309
321 320 318 316 315 313 312 312 311 310 311 312 310 311 315 313 310 312 314 310 311 313 312 312 310 311 313 310 311 315 313 314 316 314 310 310 311 312 315 317 316 317 314 314 317 313 313 316 316 316 318 319 320 319 315 315 319 315 309 315 317 319 322 322 326 326 323 324 324 323 321 320 323 326 325 321 320 323 323 323 321 319 318 319 322 324 317 309
321 320 318 317 315 313 312 312 311 310 310 311 311 312 314 314 311 311 311 310 312 314 311 312 312 313 315 312 312 314 314 316 315 313 313 313 313 313 312 313 317 321 316 314 318 315 311 309 311 316 317 317 318 313 310 316 316 312 316 323 322 323 324 324 326 324 324 327 323 322 322 320 321 327 329 324 322 325 324 323 322 320 321 323 325 325 316 310
320 320 319 317 315 314 313 313 312 311 311 312 313 312 314 319 317 311 310 310 312 315 313 313 313 313 314 313 314 315 315 317 314 314 316 314 315 317 314 312 318 324 321 318 319 315 312 313 314 315 314 315 318 315 311 312 311 316 328 328 323 326 325 324 327 325 326 328 322 318 317 317 321 326 328 324 323 323 322 324 327 327 330 329 327 324 315 308
320 320 319 317 316 314 314 315 313 311 312 313 313 313 312 318 318 313 313 311 312 317 317 317 315 314 314 313 314 314 316 317 314 315 318 316 315 316 315 315 317 320 320 318 319 316 315 318 317 314 311 315 323 322 316 313 313 319 328 325 322 326 324 324 328 326 326 324 316 314 316 317 319 321 322 322 321 322 320 321 324 327 330 327 321 321 316 309
317 319 319 317 316 315 314 316 313 311 313 313 314 318 318 316 315 313 314 313 314 316 317 320 317 314 314 314 314 314 315 317 315 316 318 317 316 315 316 318 316 318 321 317 316 318 319 317 315 314 314 316 321 321 320 318 317 319 323 324 324 325 328 334 333 323 321 321 314 311 316 320 321 320 320 317 317 319 319 318 319 319 322 320 314 315 316 312
315 317 318 317 316 315 314 315 313 311 313 314 316 319 319 317 317 315 313 312 317 319 318 319 316 313 314 316 316 314 313 316 315 317 317 316 318 318 318 318 315 319 326 319 316 319 319 318 317 316 317 318 316 316 322 322 318 317 320 322 324 327 332 337 336 326 322 325 319 312 317 326 327 324 321 319 319 323 322 320 318 315 314 313 311 311 314 313
313 314 316 316 316 315 314 315 314 312 313 315 316 316 317 318 320 319 316 312 320 323 318 316 316 315 316 317 317 314 313 316 314 316 318 317 319 318 317 317 314 319 323 317 317 318 316 319 321 316 314 316 315 317 322 321 316 316 319 320 321 325 326 322 321 322 322 324 323 318 321 326 325 322 321 320 323 325 323 320 317 317 314 312 314 314 312 312
314 313 313 315 315 315 314 314 314 313 314 316 317 315 317 320 320 320 318 316 321 322 317 317 320 319 317 317 318 314 313 317 316 317 318 317 318 318 317 317 314 315 315 313 319 320 317 320 317 312 313 314 315 318 319 318 317 316 317 321 319 317 325 324 315 313 314 318 322 322 323 323 320 321 319 318 321 322 320 319 319 319 317 315 319 319 315 314
314 312 312 313 314 315 315 314 314 313 315 317 317 316 316 319 319 320 320 319 319 319 317 319 320 320 318 318 319 317 315 318 317 317 318 316 318 319 317 317 315 313 313 313 319 321 320 322 315 312 316 312 310 316 317 314 316 319 320 322 316 313 323 327 321 321 321 323 324 322 322 321 321 321 318 317 320 319 318 320 320 318 317 318 320 319 318 315
314 313 312 312 313 315 315 314 314 314 315 316 316 317 316 317 319 321 321 319 317 317 318 319 318 319 319 318 319 317 315 317 317 316 317 316 317 318 316 317 317 314 313 314 317 318 318 319 317 311 315 312 309 315 318 313 311 318 321 318 318 322 325 322 322 328 327 326 328 326 323 320 319 321 319 321 328 328 323 321 320 318 317 319 322 321 320 320
313 314 315 314 312 314 315 314 313 314 315 315 315 316 316 315 317 321 322 317 316 317 318 319 318 318 319 318 319 317 314 317 317 316 317 316 316 318 315 315 317 314 313 313 314 318 316 315 318 312 310 313 313 316 320 317 312 314 316 314 317 324 324 322 323 324 325 328 330 328 325 321 320 325 323 322 330 333 328 325 324 324 322 319 323 327 326 327
313 315 316 314 312 314 314 313 314 316 315 314 314 315 315 314 314 318 320 316 316 318 317 319 320 320 319 318 318 318 316 316 316 316 317 316 316 318 314 314 318 315 314 312 313 318 316 313 318 315 310 314 318 317 318 319 316 315 317 316 317 318 319 322 321 320 325 331 331 329 326 320 323 328 325 322 325 325 326 329 328 330 331 323 321 325 325 325
313 315 315 313 313 314 314 313 316 317 315 313 313 313 314 315 315 317 317 315 318 320 317 318 321 320 319 317 317 318 317 316 316 316 317 316 316 318 315 315 318 316 314 314 313 316 317 315 320 320 315 317 321 317 314 316 317 317 317 317 317 318 319 321 319 319 324 327 327 327 325 320 323 324 324 326 325 319 320 328 328 331 337 331 322 320 320 321
312 314 314 313 314 314 314 315 317 317 315 312 313 313 313 315 316 317 316 315 317 319 318 320 321 320 320 318 317 318 318 317 316 316 318 316 315 318 317 315 316 315 314 315 315 316 320 322 322 322 319 318 316 311 308 313 315 315 317 319 318 316 319 322 322 322 323 321 320 321 323 322 321 323 327 329 325 319 316 322 329 332 331 326 321 318 316 315
312 314 314 314 314 314 315 316 317 316 314 312 312 314 314 315 315 316 317 317 317 319 320 321 322 320 320 319 318 318 318 318 317 316 318 318 315 317 319 316 314 314 314 317 318 317 319 321 319 320 323 321 316 311 309 311 313 314 318 320 318 316 318 322 323 323 323 322 320 320 322 322 317 319 323 321 317 319 316 316 324 331 328 323 320 319 317 314
311 312 313 313 314 314 316 318 317 314 312 311 311 312 313 314 315 316 317 317 317 319 319 319 321 321 320 320 319 318 317 318 318 316 316 319 318 317 319 317 315 315 315 316 317 316 317 320 319 320 324 323 319 317 315 314 314 318 322 319 317 317 318 320 321 321 323 324 322 322 322 321 318 318 319 317 316 320 322 317 315 321 329 331 326 320 317 314
310 311 312 313 313 313 315 318 317 315 312 311 311 311 312 313 315 315 316 317 317 319 319 320 321 321 321 321 319 317 317 319 321 319 317 319 320 316 315 317 315 314 316 317 315 315 318 321 318 318 321 321 321 322 322 319 316 318 323 319 315 317 318 318 319 320 321 322 321 321 322 320 320 319 317 317 319 321 323 321 316 316 322 326 325 322 318 315
309 311 312 313 313 312 314 317 317 316 313 312 311 310 311 312 314 315 315 316 317 318 319 322 321 320 321 321 320 320 319 318 321 323 319 319 321 318 314 315 315 314 317 318 317 318 323 322 316 317 320 319 321 323 323 321 319 318 321 318 316 316 317 317 319 320 321 322 321 320 320 320 321 321 320 319 322 324 322 322 322 321 318 317 315 314 314 313
308 309 312 314 313 312 313 314 316 316 315 313 312 311 311 311 312 314 315 316 317 317 318 320 320 320 321 321 321 322 321 320 320 321 320 320 320 317 314 313 314 314 317 318 317 319 324 323 317 318 320 318 321 325 322 320 320 320 319 318 316 315 316 318 320 320 320 322 322 320 319 321 320 320 323 323 322 323 324 325 326 324 322 320 315 312 313 313
307 308 311 312 312 312 312 312 315 315 315 314 312 312 312 311 311 313 315 315 316 317 318 319 319 320 321 321 321 321 321 322 321 320 320 320 319 318 315 313 314 315 317 316 315 318 321 321 320 320 319 319 320 322 320 320 320 319 318 318 316 315 316 317 318 318 319 321 321 319 320 322 319 317 322 323 320 321 323 323 322 320 321 322 318 317 319 317
306 307 308 308 309 311 311 311 312 314 314 314 313 313 312 312 312 312 314 315 315 316 317 318 318 318 319 320 321 322 322 322 322 321 320 320 321 320 319 318 316 315 315 315 315 318 320 319 320 320 319 319 320 319 319 320 319 318 318 318 317 315 316 316 316 317 318 319 319 319 321 321 318 319 321 320 321 322 320 318 318 319 322 322 318 317 319 321
305 306 306 306 308 309 309 309 310 311 311 312 314 313 312 312 312 312 313 315 315 315 316 317 317 317 318 319 320 321 321 321 322 321 320 319 321 320 320 324 322 313 311 313 315 315 317 319 322 321 320 321 320 319 319 320 319 319 319 319 317 316 315 316 316 317 317 319 318 318 320 319 318 321 323 322 322 322 319 318 319 320 321 320 318 318 319 322
303 304 305 306 308 308 309 310 310 309 310 311 313 313 312 312 312 312 312 313 314 315 315 316 316 317 317 318 319 319 320 321 321 321 319 319 320 319 319 322 321 314 311 313 314 314 315 319 322 321 321 322 321 320 319 318 317 317 319 320 318 316 315 315 316 316 317 318 318 318 319 318 318 321 324 324 323 321 319 319 319 319 319 319 318 318 319 320
302 302 303 305 306 307 309 310 310 310 310 310 310 311 311 312 312 312 313 313 313 315 315 315 316 316 317 317 318 318 318 319 320 319 319 318 319 320 319 318 317 316 314 313 314 314 315 317 319 320 321 322 321 321 320 317 318 319 319 319 317 316 316 316 316 316 316 317 318 319 318 317 320 325 324 323 323 321 319 319 318 318 319 319 317 315 317 317
Wind_Speed
7 5 3 3 3 2 2 2 2 3 2 2 2 2 2 3 3 2 3 2 2 2 2 2 2 2 1 1 2 2 3 2 1 2 3 3 3 4 4 4 5 5 4 4 3 3 2 6 7 5 5 5 4 2 3 3 3 4 3 4 2 3 4 6 8 7 4 3 5 4 3 6 3 2 2 1 3 3 0 3 2 4 5 7 6 3 4 10
8 5 4 3 3 3 2 1 2 2 2 2 2 2 3 3 4 3 3 2 2 3 2 2 2 2 0 1 1 2 2 1 1 3 3 4 4 5 5 5 5 5 4 5 6 5 4 3 4 6 6 3 3 3 2 3 4 4 3 3 3 5 5 5 7 6 2 2 5 4 2 4 4 4 3 3 1 3 1 3 3 5 7 7 6 5 6 11
7 5 5 3 3 3 2 1 2 2 1 2 2 1 2 3 4 4 3 3 3 3 2 2 1 1 0 1 2 3 1 1 2 3 2 4 5 5 5 5 4 4 5 7 7 6 6 3 3 5 5 4 2 3 3 4 2 2 3 2 4 6 3 4 6 6 3 3 6 4 2 2 2 3 2 3 1 1 4 5 2 5 8 7 5 5 8 11
7 6 5 3 3 3 2 1 1 2 1 0 0 1 2 2 3 4 4 4 4 3 2 2 1 1 1 1 2 2 2 3 1 2 1 5 6 6 5 4 4 4 5 6 6 6 6 6 6 6 4 3 3 3 3 3 1 2 3 3 4 3 1 2 5 5 3 3 5 5 3 1 2 2 2 5 3 3 6 7 8 9 9 7 6 7 10 11
7 6 5 4 3 3 2 1 0 1 1 2 1 1 1 1 2 3 4 4 4 4 3 2 2 1 1 2 2 2 3 4 1 1 2 5 7 6 5 5 4 4 5 5 5 5 5 5 7 6 5 3 4 4 2 3 2 3 1 3 4 3 2 1 4 4 3 2 5 6 5 3 2 1 3 7 6 5 5 6 8 9 7 7 8 9 10 12
7 6 5 4 4 3 2 1 1 1 2 2 2 1 1 1 2 2 3 4 4 4 3 3 3 2 2 3 2 2 5 2 2 1 4 6 8 6 5 5 5 5 5 4 3 4 4 5 7 4 4 3 3 3 1 3 2 3 1 1 3 2 1 1 2 3 4 5 6 5 3 2 3 1 2 6 9 7 4 4 5 7 6 6 9 11 10 13
7 6 5 5 4 3 2 1 1 2 2 2 3 3 1 0 1 2 3 4 4 4 4 3 3 3 3 3 2 5 5 1 2 4 6 7 8 5 6 5 6 6 4 4 4 4 4 7 6 3 4 4 1 2 1 3 3 5 1 1 2 2 1 1 1 2 3 5 4 3 2 3 4 3 1 4 11 7 4 3 4 6 6 7 8 10 11 14
8 6 6 5 5 4 2 1 1 2 1 1 2 3 2 1 1 2 3 4 4 4 4 4 4 4 4 4 3 5 3 0 1 6 8 8 7 5 5 5 6 4 5 7 4 5 4 6 4 4 4 2 3 3 2 1 5 5 2 2 1 1 3 1 2 3 2 2 1 2 3 2 5 2 1 8 12 7 3 0 0 2 4 7 8 9 10 12
8 6 7 6 5 4 3 2 2 2 1 1 1 2 3 1 1 2 3 4 4 4 5 5 4 4 4 4 6 4 1 1 2 7 8 8 7 5 3 5 6 5 8 9 6 5 3 2 4 4 4 2 4 2 2 2 1 1 4 2 2 1 4 0 3 3 1 0 2 3 0 3 3 1 4 9 8 3 2 3 2 3 5 6 6 8 10 10
7 7 8 7 5 3 3 3 2 1 1 1 1 3 3 1 1 1 3 4 5 5 5 6 5 5 5 4 7 3 2 2 3 8 9 8 7 4 4 6 6 6 9 9 8 7 3 5 5 5 7 3 3 2 2 2 2 2 4 3 3 1 3 2 3 1 0 1 2 3 1 4 3 1 5 5 2 1 3 2 0 3 5 6 5 6 9 10
9 8 6 5 3 3 3 3 2 2 1 0 2 3 3 1 1 1 2 4 5 6 6 6 6 6 5 6 6 3 2 3 4 8 9 8 7 4 5 7 6 8 8 9 9 8 6 8 9 6 3 2 3 3 2 1 3 2 3 3 4 5 2 4 2 2 1 1 3 4 1 3 3 2 7 3 2 0 3 3 2 3 4 5 5 5 7 10
11 10 7 6 4 3 3 3 2 2 1 1 2 3 3 2 1 1 3 4 4 5 6 6 6 5 4 5 3 5 4 4 4 8 8 8 7 6 7 7 7 7 7 9 7 6 8 8 8 6 1 3 3 2 1 2 2 1 2 2 5 7 4 4 3 3 2 1 3 3 1 4 2 8 9 2 1 1 1 5 3 4 5 4 5 4 5 9
11 10 9 8 5 4 4 3 3 2 1 1 2 2 2 2 2 2 3 4 4 6 6 6 5 5 4 3 1 4 4 3 4 8 8 8 9 8 9 9 9 8 8 10 8 7 8 5 8 8 2 5 3 0 3 3 3 1 3 3 3 7 4 4 3 3 1 1 1 1 3 5 7 13 8 3 1 2 2 6 4 4 5 4 5 4 5 9
11 10 9 8 7 6 5 4 4 3 2 1 1 0 1 2 3 1 3 4 5 6 6 6 5 4 4 1 2 3 3 3 5 8 10 10 10 11 11 10 10 10 10 12 11 10 9 7 11 9 3 4 3 2 4 5 4 1 2 2 3 2 4 5 2 1 3 1 2 2 4 6 8 12 7 3 2 4 6 8 5 5 5 5 5 5 6 8
8 9 9 8 6 6 5 4 4 4 3 1 0 2 3 3 3 3 4 4 5 6 6 6 5 4 4 1 1 1 3 4 6 9 11 11 11 10 10 10 12 12 11 12 12 11 9 7 9 6 1 2 3 5 4 4 4 3 1 2 3 1 5 8 2 3 3 1 2 3 4 6 8 10 6 3 2 4 7 8 5 6 7 6 5 5 6 7
6 6 7 6 4 3 3 2 1 2 2 1 3 4 4 4 4 5 6 6 7 7 6 5 4 5 3 0 1 0 3 5 7 10 11 11 9 9 11 12 11 11 11 10 10 9 9 7 5 3 2 2 4 5 3 3 4 4 1 2 2 1 3 6 2 2 1 1 0 2 3 4 5 6 5 2 3 4 5 9 8 8 8 7 5 5 6 6
8 6 6 5 4 2 1 2 3 2 2 4 5 5 6 6 6 8 9 9 9 7 6 5 4 4 2 1 1 3 2 5 7 10 11 10 9 11 13 9 8 9 9 8 7 5 8 7 2 1 3 3 3 4 3 2 3 4 2 1 3 2 2 3 3 2 2 2 2 2 4 7 7 7 6 2 4 4 6 10 9 8 8 7 6 6 7 7
9 8 7 6 5 3 1 1 3 3 4 6 7 8 9 9 9 10 11 12 11 8 6 3 3 3 2 2 2 1 2 6 9 10 10 10 10 12 11 7 7 8 7 5 5 4 4 4 2 2 4 3 2 5 3 4 3 3 2 1 2 2 3 4 4 2 2 2 3 3 5 12 13 12 11 5 5 6 8 9 8 8 8 7 7 8 9 9
10 9 8 6 6 4 2 1 2 3 5 7 10 11 11 10 9 8 7 7 6 4 2 3 3 4 4 3 1 3 6 8 9 9 9 11 12 11 10 9 7 7 5 2 3 3 2 3 4 2 1 2 4 6 6 7 6 6 5 4 3 3 4 6 5 4 3 2 4 7 8 11 12 12 13 7 4 6 9 7 8 9 8 8 8 9 10 11
11 10 9 7 7 5 3 2 1 4 6 9 12 10 7 6 5 2 1 1 3 5 3 3 3 3 1 1 2 7 8 7 4 5 9 12 13 12 8 6 7 6 4 3 1 2 3 4 2 5 7 7 9 6 5 5 6 7 5 4 4 3 5 6 3 5 2 3 6 8 8 10 11 11 14 9 2 5 9 8 10 11 10 9 9 11 12 13
11 10 9 8 8 6 5 3 2 4 7 10 11 6 3 4 3 0 2 3 4 5 3 1 2 2 2 2 5 7 5 4 3 3 10 11 11 10 2 4 5 3 1 3 2 2 5 4 7 9 7 7 7 6 7 6 6 6 5 3 1 3 6 6 2 4 1 3 6 5 5 11 11 12 14 9 5 8 11 11 13 14 12 9 9 14 14 10
11 11 10 9 8 7 6 4 3 4 7 10 9 4 2 5 5 3 2 1 5 5 3 2 2 1 1 2 6 4 2 3 2 1 8 7 5 6 1 4 6 4 1 2 3 3 3 4 11 7 6 7 5 6 7 6 5 4 4 3 2 3 5 6 3 4 1 3 4 5 6 10 10 11 14 13 11 10 10 12 15 14 12 10 11 14 12 9
12 11 10 9 8 7 7 5 4 5 8 9 7 5 5 7 7 4 3 2 4 3 3 4 2 3 1 1 6 6 2 4 3 4 8 7 2 3 5 6 5 5 3 4 5 4 2 6 9 6 9 8 6 5 7 6 3 3 4 4 2 3 1 4 4 3 0 2 2 5 8 8 8 10 14 15 11 9 11 13 14 12 13 15 14 11 10 11
14 13 11 10 9 8 6 5 5 7 10 9 7 8 10 9 8 4 2 2 3 4 2 5 4 5 5 3 8 10 2 3 5 5 10 9 4 3 5 5 5 5 4 7 8 6 5 6 2 5 7 8 7 4 6 5 1 3 5 6 4 4 5 4 4 4 2 2 2 3 7 7 5 8 11 7 4 7 11 11 12 13 14 15 13 11 10 10
17 15 13 13 11 8 8 7 6 9 10 7 8 11 13 10 7 5 3 3 3 4 3 3 3 5 8 6 10 9 2 2 4 6 12 12 7 4 3 2 4 5 6 6 6 4 7 5 4 6 4 6 7 4 5 7 3 4 5 9 9 7 6 3 3 5 4 4 3 3 4 6 2 4 9 5 4 7 7 6 12 14 12 11 11 12 10 8
19 17 15 15 13 12 10 6 8 10 9 6 10 15 14 10 8 6 4 4 3 4 1 3 3 7 10 7 7 6 3 4 4 5 12 11 6 5 3 1 2 3 6 6 3 3 3 2 5 7 5 5 6 2 5 7 5 2 4 7 8 5 4 3 0 2 1 4 3 3 1 7 4 4 8 5 6 10 7 8 13 12 10 9 9 10 8 7
20 19 18 17 17 17 11 4 7 12 6 5 11 17 13 10 8 4 3 4 4 3 4 2 1 6 9 8 9 7 3 5 1 4 7 7 4 4 4 4 2 2 4 5 1 2 4 3 4 6 6 6 5 2 6 8 7 3 4 4 6 7 6 5 4 3 3 3 3 2 3 5 7 5 6 5 7 11 10 13 15 12 11 10 8 9 8 7
23 22 20 20 21 20 12 7 12 13 4 2 12 19 14 12 8 3 4 0 4 2 4 1 1 4 4 5 6 5 2 2 4 2 1 4 3 4 3 7 6 6 4 6 4 3 3 6 7 7 5 4 5 4 7 11 5 4 3 5 6 6 5 5 5 2 1 3 4 1 4 3 8 5 3 3 6 8 10 14 16 13 11 8 7 7 6 5
24 24 23 22 22 20 14 9 11 12 7 4 15 22 17 12 6 4 5 2 2 1 2 1 3 1 2 4 2 3 2 2 2 2 2 4 1 4 3 6 6 7 3 3 5 2 1 5 7 8 6 6 4 1 5 9 4 3 6 7 6 5 5 5 4 3 3 3 5 4 6 3 6 4 1 1 3 7 10 12 13 12 10 7 6 5 4 3
24 25 26 24 24 23 16 9 9 10 7 7 17 23 17 9 4 4 2 3 1 1 0 1 2 1 6 8 1 2 3 2 0 2 3 1 2 6 2 3 6 6 0 3 1 2 1 1 2 3 4 5 5 4 1 4 5 6 6 6 7 5 4 4 2 3 2 5 5 5 8 6 5 3 4 3 4 6 8 8 9 11 9 7 5 4 3 3
27 27 29 29 28 27 18 10 14 13 7 10 20 21 12 4 3 4 5 2 1 1 2 1 1 4 10 10 4 2 3 2 1 5 3 1 2 4 2 2 4 4 2 4 3 2 2 1 1 1 2 4 7 5 4 4 5 6 4 5 4 3 4 3 4 3 1 6 4 3 4 6 7 6 4 5 6 6 7 7 10 11 10 7 4 3 3 2
27 30 31 31 30 30 21 13 18 17 10 15 20 12 5 3 1 4 5 0 0 3 4 3 2 6 8 6 4 5 4 2 2 5 5 4 4 5 4 5 5 2 2 7 3 2 1 3 2 1 0 4 6 5 4 4 3 4 4 6 4 2 3 2 3 0 3 6 3 1 1 4 8 8 8 10 11 10 9 9 10 10 10 8 4 3 3 2
20 29 34 34 32 33 26 17 18 19 16 19 14 3 4 5 6 8 7 3 2 2 3 4 2 6 9 6 3 4 3 2 4 3 2 4 5 6 4 4 5 3 3 5 2 0 3 5 1 3 1 3 7 6 3 1 2 4 5 6 4 2 1 2 3 2 4 6 3 1 2 4 5 5 11 16 16 12 9 10 11 10 11 10 4 3 3 3
9 20 33 38 35 34 30 21 21 24 23 20 8 3 6 7 8 9 10 8 2 2 2 4 5 5 6 4 3 5 4 2 5 4 2 5 5 6 5 5 6 3 3 4 3 5 5 6 5 7 3 6 10 8 6 6 5 5 4 5 5 5 5 4 4 4 5 4 3 2 1 3 3 3 7 11 11 8 7 10 9 9 11 8 5 4 4 4
5 10 22 31 32 32 31 25 25 29 26 15 5 4 9 10 10 11 11 7 2 3 3 3 6 6 3 2 3 4 4 2 4 4 3 6 6 7 6 8 10 6 5 4 2 3 4 7 6 2 1 9 10 4 5 8 3 3 3 4 3 5 5 2 3 5 2 3 3 2 4 5 4 6 8 7 8 6 6 8 7 11 11 5 5 7 5 5
6 6 9 17 23 29 33 28 27 31 22 10 6 7 10 11 8 8 7 6 5 5 6 2 4 5 4 2 2 4 1 2 5 4 3 4 3 6 7 7 10 11 8 7 3 2 2 5 5 3 2 4 5 2 3 4 3 2 3 4 4 4 7 3 2 1 3 2 4 2 5 5 4 7 9 8 9 8 7 7 7 12 10 4 7 8 5 5
7 7 7 11 18 26 32 30 30 30 16 7 11 10 9 9 4 3 3 4 6 9 9 4 3 5 6 3 3 6 2 2 4 4 4 3 3 6 8 4 6 13 12 6 2 3 5 3 4 2 1 3 1 2 3 3 3 5 4 6 3 2 4 3 1 2 3 3 5 1 5 6 3 6 4 1 7 10 9 9 10 10 7 5 9 8 5 6
5 7 7 13 21 24 30 34 34 25 9 4 10 9 6 6 2 4 3 3 7 10 8 7 6 5 6 6 5 7 6 3 5 5 4 3 5 7 11 5 5 14 15 7 2 3 4 3 5 2 3 3 3 3 2 4 3 5 4 4 4 3 2 2 2 2 1 4 5 3 5 5 5 6 3 3 7 9 10 11 11 10 8 8 9 8 7 6
4 4 4 12 23 24 30 38 31 16 7 7 10 8 5 7 2 1 2 2 5 8 9 9 7 3 5 7 5 6 8 6 8 7 4 5 5 6 12 10 6 11 14 10 6 2 3 4 4 1 2 1 3 2 4 1 2 3 2 2 2 2 3 3 3 3 3 3 4 4 5 6 8 7 6 9 11 10 10 9 9 10 9 8 7 6 6 6
2 3 2 8 20 26 34 35 18 7 7 8 9 6 4 6 5 5 5 2 2 4 6 7 7 5 5 6 4 5 7 7 8 8 5 6 6 5 9 10 5 6 10 11 7 2 3 3 3 2 3 1 3 5 8 10 7 3 3 5 3 1 2 1 1 2 4 3 1 2 7 11 7 5 8 11 12 11 10 8 8 9 8 7 6 6 6 6
2 4 2 9 22 30 32 21 8 5 6 5 7 8 5 4 4 8 8 3 1 1 2 3 6 6 6 6 4 5 6 5 7 7 5 7 8 6 7 10 9 8 7 7 8 5 3 3 4 3 2 4 5 4 5 9 8 7 7 8 9 6 4 2 2 1 2 3 4 3 8 14 7 5 7 8 8 9 9 9 8 7 6 6 7 7 7 6
3 4 2 13 30 34 22 8 5 6 5 4 4 4 4 3 2 5 7 4 1 2 1 0 4 6 5 7 6 6 7 6 7 7 5 8 11 8 6 8 12 14 11 7 8 6 4 3 3 3 4 6 5 2 1 3 2 3 3 5 6 5 5 6 5 4 2 1 1 4 4 13 5 5 5 5 5 5 5 6 7 6 6 6 6 7 6 6
4 3 1 12 33 32 13 5 7 6 4 2 1 1 3 3 2 3 6 7 5 3 2 2 2 4 5 5 6 7 8 7 8 11 8 8 10 7 6 9 12 14 11 5 3 2 3 3 3 3 2 3 3 3 3 2 2 1 1 2 6 8 8 6 4 4 4 4 3 4 5 12 4 2 2 3 4 3 4 6 6 5 5 5 6 7 6 6
2 2 2 10 31 28 8 5 8 6 5 3 2 4 4 2 4 6 7 9 8 5 5 5 3 4 4 3 5 8 11 8 8 12 9 6 6 3 6 12 13 12 8 5 6 6 4 4 4 3 1 3 3 2 2 2 1 3 3 4 8 10 7 3 1 2 3 9 11 6 9 12 3 3 2 2 4 5 5 6 5 5 6 5 5 5 5 4
1 2 1 7 20 17 6 4 6 5 7 6 4 7 6 3 4 7 6 7 7 5 5 6 4 3 2 2 2 5 10 9 7 8 7 5 3 2 4 11 13 11 6 3 7 9 6 6 6 6 7 8 7 6 5 3 2 2 4 7 9 11 12 7 3 3 6 12 11 8 12 13 3 3 4 4 4 6 7 6 4 7 8 6 4 5 4 4
1 3 2 3 6 7 5 4 5 5 7 8 5 5 9 7 4 4 5 5 5 6 5 2 3 4 3 3 3 4 8 11 6 3 5 7 4 1 3 9 12 11 4 3 7 7 4 4 10 13 13 13 13 9 5 8 7 7 11 13 13 14 15 11 5 6 10 7 5 12 19 18 12 5 6 7 6 6 7 5 6 8 7 7 7 5 4 5
2 4 4 3 2 4 6 5 6 6 7 9 6 4 9 11 5 2 5 7 5 7 6 2 3 6 7 9 10 7 8 10 7 2 4 5 2 2 0 5 8 10 6 4 6 6 3 4 12 17 17 18 17 11 8 12 13 16 17 15 15 15 15 14 13 16 14 6 8 19 17 16 22 15 9 9 9 7 7 7 8 8 7 7 5 4 5 7
3 2 1 1 1 4 6 5 7 8 9 10 7 5 8 11 9 5 5 6 5 5 5 3 5 10 12 13 12 9 8 9 8 8 7 5 2 0 0 1 5 8 7 4 3 4 3 6 10 14 17 20 18 9 10 11 11 13 16 17 18 18 18 19 23 24 16 10 16 22 13 15 26 19 10 11 10 8 10 10 8 6 6 6 5 5 7 7
3 2 2 0 0 2 2 1 2 6 10 10 7 6 9 11 13 10 5 3 3 6 7 7 11 14 13 11 9 8 9 8 7 9 10 8 6 4 3 2 3 4 5 5 3 2 3 6 7 6 8 14 16 8 7 8 6 5 10 15 18 20 24 26 26 25 19 15 21 21 13 18 22 12 10 12 10 9 9 7 5 6 7 8 8 8 9 7
2 1 1 1 1 1 1 1 2 1 4 7 7 9 10 12 14 11 7 7 7 7 9 13 16 14 12 12 10 9 10 9 9 9 8 9 8 5 5 6 4 2 3 4 2 0 3 6 4 3 1 8 13 10 6 7 6 6 7 10 15 20 24 25 22 18 15 17 23 20 16 19 13 6 8 10 9 9 9 7 9 9 9 11 10 9 8 8
4 1 1 1 1 2 2 2 3 1 2 4 5 6 9 13 14 11 7 10 11 9 10 16 20 13 9 11 12 14 15 12 11 6 4 6 7 4 4 4 4 5 4 4 2 2 3 3 1 3 3 10 14 13 9 5 3 6 9 13 20 20 18 17 16 17 17 19 21 16 15 18 9 7 8 9 10 11 12 11 11 10 12 13 12 10 9 9
8 2 1 1 2 3 3 1 3 4 4 4 5 4 5 8 9 8 5 5 9 11 10 14 17 10 7 12 15 15 14 11 8 4 2 4 4 4 3 3 4 7 7 6 3 3 5 3 2 4 6 13 14 11 8 4 2 6 14 22 25 18 12 12 15 20 20 17 15 13 17 20 10 7 7 8 9 12 12 12 12 13 13 12 10 10 11 11
Wind_Direction
174 184 179 158 150 153 138 130 149 145 160 179 170 174 182 191 204 208 211 205 190 192 189 200 208 218 257 313 338 356 354 1 34 76 99 109 84 94 83 63 52 43 38 38 74 136 78 36 28 60 95 58 18 348 23 21 49 57 76 100 156 175 199 188 177 192 169 182 197 208 188 142 169 206 163 137 46 47 5 298 282 291 255 239 259 268 198 174
180 176 158 150 166 175 148 133 143 156 181 178 179 188 187 192 201 204 200 195 191 194 189 195 199 201 237 339 350 6 356 359 72 65 85 126 102 100 91 64 53 47 57 66 70 90 86 24 16 61 63 45 352 354 38 2 45 83 106 110 204 195 203 199 173 183 174 144 162 165 154 148 179 168 147 190 323 21 192 266 312 307 270 247 247 233 196 177
179 163 160 157 176 175 144 132 132 153 184 185 195 198 201 201 199 198 191 185 184 187 187 188 194 194 53 10 6 12 356 66 69 31 76 136 114 106 93 66 57 57 61 66 67 72 93 115 88 79 57 53 6 7 45 9 22 129 110 116 233 211 216 226 181 186 211 153 139 149 151 158 204 164 156 189 184 68 207 229 225 253 255 237 222 199 182 179
177 164 166 161 165 161 149 154 158 154 107 39 262 238 216 204 200 196 186 180 177 179 176 167 172 123 67 21 27 13 31 79 71 340 114 140 120 112 94 72 56 54 54 60 68 69 87 101 82 73 70 57 343 20 51 351 337 117 106 165 222 195 154 221 200 201 207 166 142 142 126 157 221 174 156 153 155 257 238 225 208 220 230 218 209 186 179 185
174 173 165 161 155 155 155 136 121 126 63 12 344 294 217 205 206 192 183 179 173 171 164 154 152 108 86 49 32 342 37 79 218 342 114 141 123 116 95 66 47 46 42 53 65 72 81 79 65 53 59 58 352 32 49 316 72 78 50 193 192 154 92 221 216 193 170 125 108 122 141 175 157 146 155 156 188 235 228 220 215 220 215 200 193 179 179 191
177 175 165 163 157 151 133 114 217 135 51 10 1 336 251 221 210 187 179 174 169 168 159 154 146 121 110 77 41 23 70 94 265 103 133 140 124 115 86 52 41 37 25 58 68 70 69 46 56 54 54 61 13 60 83 305 45 91 345 264 206 189 85 318 245 198 151 115 124 149 173 125 103 253 189 177 220 227 209 215 219 238 233 201 178 169 179 194
181 175 173 165 160 161 130 131 201 133 67 26 9 352 341 277 203 182 173 170 168 160 153 150 137 128 116 96 69 54 79 130 286 136 144 133 129 111 74 43 38 31 24 71 67 91 80 50 75 118 83 74 156 105 54 313 43 88 115 285 206 190 229 280 230 181 132 126 163 178 126 115 164 221 83 216 240 235 229 248 246 252 228 190 170 175 190 195
187 171 175 166 163 168 152 162 160 131 123 106 25 360 342 309 193 171 168 171 163 153 149 141 133 127 115 118 106 51 47 306 126 144 145 136 134 106 72 54 49 42 65 67 65 136 107 62 115 152 82 84 165 114 355 356 43 67 136 224 157 186 288 282 106 91 93 112 126 107 112 201 207 195 324 244 246 243 234 281 230 194 167 178 181 191 196 195
202 173 179 178 170 171 169 168 148 146 170 168 48 1 340 315 182 165 173 171 154 152 146 134 133 125 125 114 95 81 290 306 134 152 148 147 136 103 72 67 63 63 77 63 59 116 124 134 176 177 133 143 136 97 348 79 66 111 141 177 135 331 314 91 110 61 34 103 110 137 59 294 249 293 275 253 250 235 149 74 76 130 153 188 195 198 197 195
198 178 184 184 177 182 187 179 167 156 157 190 32 360 337 325 139 149 172 171 154 149 142 139 134 123 143 122 85 104 239 41 140 161 151 152 144 114 72 71 71 76 80 62 58 69 91 169 171 148 133 119 107 85 357 95 140 131 131 143 106 354 312 74 120 56 306 203 162 179 251 299 312 331 259 269 326 108 128 94 34 162 187 205 204 208 203 204
185 187 186 178 179 190 183 178 172 152 133 81 25 346 321 324 113 126 159 164 154 144 139 141 136 127 138 116 101 160 179 77 138 158 154 155 145 118 81 81 84 87 85 68 62 58 84 141 141 123 114 110 106 50 7 120 117 98 131 145 19 357 359 30 32 331 334 201 186 155 162 300 358 257 238 266 8 73 157 200 242 204 222 220 216 220 209 216
184 189 184 183 191 183 172 175 166 146 99 40 1 317 312 327 49 103 152 151 146 141 138 139 139 142 116 84 114 178 146 91 134 151 158 158 141 116 87 86 90 90 96 85 70 67 98 131 116 93 55 135 121 39 112 112 86 63 90 146 329 0 18 353 345 315 340 167 193 133 336 279 220 227 242 331 15 47 153 227 247 232 241 239 232 236 223 227
189 185 181 185 187 183 185 181 174 176 173 60 321 296 316 351 35 64 149 144 137 137 139 137 137 141 108 77 176 165 148 113 134 150 155 153 138 113 93 94 97 93 97 94 84 81 107 130 98 100 108 106 117 167 116 57 49 345 37 87 340 4 347 319 5 338 148 150 304 100 277 263 237 243 255 1 126 111 259 248 245 241 249 248 241 247 241 235
198 190 187 184 184 196 201 188 184 196 193 218 296 345 38 37 53 81 139 137 137 135 137 135 134 127 98 149 201 148 178 162 142 155 154 153 138 112 101 101 100 99 95 91 85 81 99 110 93 98 84 83 132 105 48 14 23 28 17 54 27 17 287 297 341 124 156 209 1 109 246 266 266 263 273 315 191 163 241 251 244 246 248 247 246 246 249 240
204 192 187 186 194 202 201 192 194 207 207 217 113 99 75 64 76 99 126 132 131 129 130 128 131 115 75 303 209 117 197 175 164 166 160 159 145 118 110 110 103 99 95 91 88 81 88 95 79 78 45 20 74 74 36 359 21 31 4 318 358 139 274 305 303 162 165 331 40 139 238 274 272 270 290 319 177 175 243 258 258 253 249 247 248 243 249 251
209 193 183 183 204 211 195 170 152 205 195 137 107 106 91 92 106 115 124 123 121 120 115 114 118 112 95 293 176 262 215 178 174 171 164 167 159 134 124 115 101 98 98 93 92 83 66 64 62 69 123 63 69 85 54 20 1 357 63 222 265 157 283 315 331 235 256 44 15 214 242 281 280 275 309 355 158 171 244 266 263 253 252 246 245 245 247 253
212 205 191 183 198 207 184 59 58 85 112 111 115 113 104 104 113 120 120 114 112 107 101 113 115 99 93 157 202 265 211 161 167 166 165 165 159 145 131 110 94 100 97 85 87 69 37 47 76 14 56 58 86 93 60 5 300 320 29 182 238 201 222 299 314 295 23 76 227 242 243 259 270 275 289 276 166 173 228 254 257 253 253 246 243 247 246 244
214 209 198 191 195 193 190 73 76 103 120 123 119 113 109 108 115 122 124 118 105 86 83 101 88 82 264 233 197 232 105 135 149 151 153 150 151 150 133 109 105 96 70 49 48 37 21 33 62 56 36 15 65 97 125 220 211 182 167 158 249 244 223 257 280 242 103 68 233 235 251 259 268 275 278 259 171 190 231 246 258 259 253 250 245 243 245 242
214 211 201 195 193 196 209 159 109 139 141 131 125 115 104 100 105 116 122 120 115 103 136 201 133 138 215 246 167 94 95 121 137 143 142 139 143 135 111 98 98 85 77 67 6 23 53 52 61 96 193 216 183 164 179 195 159 150 169 147 162 219 250 237 249 256 202 141 239 233 239 256 264 272 275 266 175 205 248 257 265 262 251 246 242 244 245 241
213 210 203 199 196 203 215 215 170 159 151 142 137 123 104 95 75 63 304 267 185 153 135 198 172 131 140 317 109 112 107 107 121 153 147 144 139 119 86 57 55 52 87 156 182 22 74 89 145 210 211 200 195 178 148 147 121 115 125 117 152 196 270 250 244 291 239 169 249 237 235 259 264 268 271 268 185 227 255 257 259 256 249 242 237 244 243 241
210 208 205 201 198 201 202 222 239 177 160 156 152 136 143 154 96 23 248 280 234 174 119 97 131 114 115 152 158 141 118 75 48 142 154 156 144 132 74 25 77 60 309 170 147 29 67 123 220 226 198 180 176 144 117 110 92 93 124 127 182 210 258 257 227 310 292 179 265 272 258 260 258 264 270 267 239 240 241 241 251 251 249 245 237 244 243 242
207 207 205 198 195 197 199 223 241 198 175 169 164 146 165 159 121 110 137 279 264 211 162 103 58 304 223 161 183 167 78 78 53 214 171 156 147 165 160 71 125 171 247 123 103 33 59 212 237 218 134 107 101 120 119 111 98 87 114 128 243 242 271 285 308 340 352 186 270 305 284 263 255 260 264 259 249 247 238 231 242 249 252 249 237 241 244 239
209 203 198 194 194 195 205 219 214 202 186 177 175 154 140 137 121 99 101 92 291 264 159 172 199 227 206 238 200 171 104 149 164 239 194 153 121 173 135 110 137 138 139 170 156 137 160 248 248 183 134 106 77 93 108 103 105 118 133 147 227 245 271 287 302 333 21 191 277 304 289 267 248 252 257 256 250 254 252 242 245 248 247 249 245 242 238 234
212 203 194 190 189 192 204 198 187 207 197 187 193 166 137 133 130 117 97 64 299 286 227 200 190 184 185 192 181 166 140 180 168 200 188 158 124 150 149 141 129 125 183 192 168 173 218 249 230 125 141 127 109 120 127 128 210 237 189 180 204 220 217 236 291 323 335 1 13 329 298 275 239 240 252 270 301 271 259 253 255 251 243 248 256 255 238 230
213 206 196 185 184 184 181 180 195 205 194 195 203 171 142 138 135 124 99 44 304 295 305 211 189 200 191 158 161 164 125 219 215 195 179 163 143 141 157 142 126 169 196 166 153 214 248 235 124 108 125 118 120 155 170 158 186 283 230 203 211 213 215 238 351 5 355 333 347 15 314 285 278 242 253 287 324 273 264 259 256 254 252 248 253 255 241 229
215 208 198 186 179 172 166 190 216 193 181 213 198 165 149 144 131 124 99 47 291 271 250 178 174 189 183 153 153 141 95 255 256 157 164 169 153 119 134 133 70 190 182 142 151 221 236 202 112 120 132 116 116 172 222 173 137 297 252 208 207 185 179 215 81 45 301 268 281 56 353 283 289 227 245 266 268 268 279 274 262 258 259 249 244 253 243 226
217 210 199 188 178 173 168 181 188 170 169 242 190 165 159 150 134 127 85 28 285 206 143 193 188 163 171 170 160 135 173 236 95 112 158 169 166 73 123 170 102 187 169 125 214 245 169 150 103 119 117 116 135 203 222 164 130 245 244 152 155 158 178 189 155 179 235 277 297 67 112 279 279 241 251 263 256 273 283 275 271 265 258 253 247 251 243 230
222 213 200 190 186 186 184 161 159 169 194 238 170 168 161 150 146 106 90 81 277 132 124 250 136 127 137 161 151 118 203 206 111 189 283 122 163 52 111 191 171 178 177 144 208 264 154 173 182 162 140 159 187 216 193 156 141 245 199 122 131 146 155 132 123 166 329 340 302 263 130 254 274 259 299 302 249 264 268 262 266 267 265 264 258 256 256 250
226 216 204 193 189 193 195 174 165 186 211 164 160 167 158 151 153 70 83 198 260 91 101 119 123 78 70 135 147 60 49 29 108 225 6 91 131 53 139 196 149 154 194 161 197 260 122 196 193 159 160 195 190 288 188 161 164 195 135 100 82 82 83 86 104 115 54 315 256 205 164 220 276 241 158 350 238 243 250 253 261 267 272 272 264 272 290 285
228 220 209 193 186 189 190 191 193 190 195 171 163 162 151 144 131 88 146 225 223 98 70 123 158 168 134 140 190 359 68 22 63 96 41 85 27 32 124 155 92 119 294 353 245 242 315 270 203 145 167 183 127 67 54 130 136 140 113 76 59 43 43 57 52 82 62 280 260 211 187 196 273 259 185 204 219 217 227 250 266 270 277 277 272 284 291 283
228 224 209 192 187 187 180 197 205 187 174 167 160 155 143 96 70 140 199 241 22 137 134 143 167 136 147 152 173 191 101 36 185 142 131 166 64 48 102 118 74 74 3 309 285 300 345 342 247 207 148 124 98 70 32 49 100 111 94 87 76 1 13 27 356 46 145 254 265 260 212 202 240 255 235 246 259 237 213 232 255 263 273 275 278 293 283 258
224 223 209 195 193 190 188 205 198 179 165 161 158 154 136 87 80 209 218 38 301 209 163 161 187 151 156 153 155 169 139 83 193 163 147 150 163 175 184 182 161 102 258 235 250 347 274 234 241 312 173 137 113 81 39 11 30 83 102 109 100 330 348 343 309 76 227 254 262 270 224 231 243 249 254 260 263 248 219 224 241 253 267 267 257 274 281 233
222 218 209 201 197 195 198 205 185 172 164 158 154 95 89 145 208 218 217 206 218 225 134 107 115 149 153 151 165 165 128 146 185 170 138 137 168 210 239 218 176 145 196 192 156 103 268 297 258 148 260 191 156 149 146 207 193 155 149 140 137 149 151 272 274 269 269 271 276 244 192 245 269 256 239 241 249 245 225 231 237 242 258 264 259 258 269 239
233 212 205 202 199 198 200 197 183 174 163 154 146 74 129 185 217 210 214 221 212 26 52 96 104 126 148 159 202 171 140 210 179 145 128 136 163 215 236 234 206 133 101 142 152 177 214 280 211 173 208 190 183 191 161 140 161 182 157 137 154 161 166 213 222 226 265 285 289 287 215 205 217 251 234 232 253 265 246 243 246 251 256 262 272 259 247 244
261 216 206 201 197 198 198 194 187 175 160 147 142 155 174 198 213 212 215 208 167 53 30 62 97 119 182 302 292 191 155 208 177 135 152 168 185 204 198 209 202 163 137 175 206 162 198 262 242 228 245 170 179 206 116 109 140 210 123 117 185 186 158 183 206 180 195 313 295 241 227 218 213 264 262 244 262 274 265 266 266 261 260 270 280 261 237 235
240 231 220 203 198 198 196 194 185 172 159 144 157 185 204 209 203 207 202 166 153 134 107 73 75 118 199 248 281 226 158 107 154 149 197 200 224 211 199 213 198 182 180 179 186 144 160 277 286 347 355 170 180 202 115 135 183 161 136 177 212 168 125 121 245 79 72 279 270 213 246 283 313 279 260 241 255 259 266 280 259 252 265 298 282 263 241 234
218 209 216 215 211 202 196 193 180 170 167 165 177 191 213 219 195 145 161 134 135 139 134 172 186 155 185 190 202 210 198 94 155 178 197 191 256 212 201 235 195 192 200 177 184 197 160 254 301 56 189 263 286 118 70 29 117 124 178 206 171 108 96 108 208 353 40 251 270 254 252 279 301 275 275 215 252 252 250 254 247 253 271 274 266 266 259 246
215 200 216 225 218 205 195 188 175 168 174 182 197 210 215 219 179 96 146 126 126 151 169 200 198 168 176 185 195 188 176 169 172 188 189 181 248 207 180 208 205 198 205 177 198 239 151 221 306 40 196 291 10 119 93 4 63 128 184 191 124 141 187 121 158 209 202 246 280 298 283 265 213 231 246 193 223 235 236 237 240 251 254 243 250 264 270 259
230 215 246 225 216 208 193 183 173 167 176 180 203 222 216 220 234 61 200 167 140 167 188 206 197 172 181 177 166 165 182 187 169 179 191 182 235 211 175 191 206 198 196 177 189 225 130 202 267 327 239 320 37 162 182 202 37 59 92 143 117 146 173 164 156 170 182 231 282 311 310 269 222 202 192 201 210 211 217 224 228 233 236 237 238 242 255 254
226 239 267 196 201 198 185 179 175 175 180 184 201 204 196 211 228 252 236 184 150 186 193 204 186 172 190 177 159 170 190 196 174 182 205 189 219 240 190 184 168 168 179 178 192 172 111 209 239 307 317 177 187 211 190 178 167 154 165 173 184 125 112 173 145 120 139 160 218 290 289 270 244 181 183 201 208 205 198 201 223 228 215 218 229 228 240 245
206 250 237 174 184 181 174 175 189 191 178 194 214 209 202 187 192 231 228 167 57 256 165 189 192 185 178 173 194 190 175 188 185 189 219 205 209 237 206 175 151 136 140 170 203 196 163 192 180 182 233 205 221 246 205 192 181 178 188 190 189 169 138 163 239 225 134 159 187 190 269 272 252 169 195 206 205 212 202 190 214 240 220 209 224 228 234 241
219 240 196 175 178 170 164 184 201 184 192 200 204 202 198 186 162 215 213 181 233 285 5 282 210 198 178 177 195 177 159 180 190 192 223 218 212 221 213 177 156 150 147 165 203 196 146 120 151 192 218 218 237 301 241 223 181 153 194 193 177 164 153 165 201 220 172 203 197 111 267 273 251 151 194 216 205 226 237 205 201 229 235 221 233 241 242 249
231 234 100 172 177 168 161 214 194 187 223 204 138 141 178 203 198 186 197 196 199 204 213 248 212 207 211 185 168 167 175 188 193 199 215 225 224 219 182 168 154 152 156 158 191 176 117 132 189 234 301 312 318 352 16 25 77 115 247 172 168 189 192 175 183 184 155 192 190 118 247 261 264 113 208 249 244 247 262 237 214 230 246 221 228 247 249 256
243 240 9 181 182 177 172 208 189 197 222 206 217 219 216 231 199 196 198 197 197 190 205 229 221 219 228 175 156 181 189 194 203 208 210 217 233 225 160 169 165 164 175 179 172 171 170 184 185 189 288 322 323 309 312 345 125 203 220 199 195 195 176 126 115 138 168 213 197 177 243 251 273 14 298 294 306 282 257 242 222 237 251 226 214 235 242 253
244 228 301 195 192 192 203 203 179 187 202 198 203 208 217 235 207 210 205 195 205 200 206 229 218 205 221 158 171 194 196 208 217 211 214 221 246 298 178 179 180 186 203 188 167 166 168 180 174 184 216 230 229 226 217 183 151 212 220 199 198 188 174 177 179 159 220 225 196 189 241 249 294 14 271 276 311 281 258 250 236 238 249 250 233 225 226 230
219 219 193 187 207 218 237 210 178 181 193 195 201 201 207 217 216 201 197 205 217 203 207 240 196 198 213 196 210 211 211 227 231 187 212 217 213 284 198 183 192 201 191 116 149 153 144 187 191 198 211 221 232 235 180 138 146 203 213 197 195 195 189 190 185 193 217 218 192 217 232 247 263 244 222 247 248 239 249 256 253 247 245 253 248 231 222 222
229 230 192 172 217 231 241 231 200 194 182 179 188 184 195 214 226 176 192 210 208 201 216 238 169 195 204 204 219 223 213 224 229 205 223 219 213 342 137 174 204 210 184 146 160 144 121 209 205 209 217 225 235 230 171 157 175 201 206 194 195 199 189 191 207 216 211 180 230 235 223 239 256 241 200 222 227 227 247 243 239 242 236 234 228 214 223 225
218 242 224 194 218 223 232 228 211 211 192 173 177 175 182 204 212 195 200 213 205 199 209 221 212 213 210 205 214 219 210 214 220 218 223 217 185 79 101 184 225 213 185 180 192 141 160 223 215 215 225 233 240 223 174 182 192 196 199 194 193 194 191 200 215 220 208 188 236 243 210 218 248 245 209 211 211 211 229 228 228 241 243 231 203 199 224 223
205 250 281 299 300 245 245 138 189 226 206 179 173 184 184 197 205 201 189 179 201 206 198 212 226 221 219 216 210 210 207 203 213 216 216 214 192 162 175 210 237 220 167 169 206 153 178 223 215 205 232 248 253 235 179 199 224 211 206 201 195 195 198 205 216 221 216 215 238 247 231 232 245 237 202 205 201 208 223 226 232 241 241 235 222 223 236 233
184 216 218 93 352 258 249 97 85 297 222 195 198 201 192 199 205 201 187 177 189 198 194 216 230 223 217 223 223 225 219 208 215 217 207 217 214 185 197 203 181 142 121 150 205 285 214 219 195 131 245 263 261 251 204 194 222 238 234 219 211 208 207 210 217 221 220 228 239 245 252 256 250 181 178 199 196 213 229 230 235 241 244 246 245 242 243 242
216 9 93 99 286 215 199 194 165 181 242 204 215 212 199 208 207 197 198 201 199 192 184 209 229 230 217 223 226 233 236 230 233 233 190 213 226 215 231 225 143 128 147 164 163 147 193 224 130 112 218 249 250 245 228 193 202 254 256 236 223 216 212 212 216 218 214 221 234 241 251 255 239 148 170 193 188 209 226 229 235 242 243 244 245 242 238 239
216 289 75 177 266 212 199 225 185 207 233 194 192 209 207 219 210 189 204 224 214 210 195 203 221 225 219 226 228 231 237 237 243 250 167 202 256 285 264 234 155 149 161 166 157 155 171 196 195 161 211 247 245 224 198 160 164 247 244 237 229 217 207 212 223 226 218 213 221 226 234 242 228 148 175 194 190 207 219 221 228 237 239 237 232 231 233 234